Regional Weather Roundup
Issued by NWS Grand Forks, ND

Home | Current Version | Previous Version | Text Only | Print | Product List | Glossary On
Versions: 1 2 3 4 5 6 7 8 9 10 11 12 13 14 15 16 17 18 19 20 21 22 23 24 25 26 27 28 29 30 31 32 33 34 35 36 37 38 39 40 41 42 43 44 45 46 47 48 49 50
000
ASUS43 KFGF 242031
RWRFGF
PRAIRIE TO PINES  WEATHER ROUNDUP
NATIONAL WEATHER SERVICE EASTERN NORTH DAKOTA/GRAND FORKS ND
200 PM CST TUE JAN 24 2017

 **SATELLITE DATA USED TO AUGMENT SKY COVER AT AUTOMATED STATIONS**
 *****  WEATHER ACROSS EASTERN NORTH DAKOTA  *****

CITY           SKY/WX    TMP DP  RH WIND       PRES   REMARKS
GRAND FORKS    CLOUDY    29  21  72 NW8       29.85F WCI  21
GRAND FRKS AFB CLOUDY    27  23  86 N7        29.85S WCI  19
DEVILS LAKE    CLOUDY    22  20  92 NW7       29.84S WCI  13
FARGO          PTSUNNY   30  22  72 NW7       29.86S WCI  23
WAHPETON ARPT  CLOUDY    30  27  86 N6        29.85S WCI  24
$$

 ***** WEATHER ACROSS CENTRAL AND WESTERN NORTH DAKOTA  *****

CITY           SKY/WX    TMP DP  RH WIND       PRES   REMARKS
BISMARCK       CLOUDY    26  18  71 NW13      29.87F WCI  15
MINOT          CLOUDY    23  17  78 NW16      29.85F WCI  10
JAMESTOWN      CLOUDY    25  21  85 N9        29.83S WCI  15
MINOT AFB      CLOUDY    21  16  79 NW18      29.85S WCI   6
GARRISON         N/A     23  18  81 NW13      29.87R WCI  11
WILLISTON      CLOUDY    20  14  77 NW9       29.91F WCI   9
DICKINSON      CLOUDY    21  16  81 NW12      29.82S WCI   9
HETTINGER      CLOUDY    20  16  84 NW13      29.84F WCI   7
$$

 *****  OTHER AIRPORT OBSERVATIONS IN OUR AREA  *****

CITY           SKY/WX    TMP DP  RH WIND       PRES   REMARKS
WALHALLA       NOT AVBL
GRAFTON AIRPOR CLOUDY    28  25  86 NW5       29.87S WCI  23
VALLEY CITY AR CLOUDY    25  25 100 NW8       29.85S WCI  16
CANDO          NOT AVBL
CAVALIER APRT  CLOUDY    28  25  86 NW6       29.85S WCI  22
GWINNER        MOCLDY    30  27  86 N12       29.83F WCI  21
SHEYENNE NWR     N/A     28  20  70 N6        29.95S WCI  22
ROLLA            N/A    N/A N/A N/A MISG        N/A
 ***** THE ABOVE OBSERVATIONS ARE NON NWS ARE NOT QUALITY
       CONTROLLED AND MAY MIS-REPORT RAIN FOR SNOW...
$$

  *****  WEATHER ACROSS NORTHERN MINNESOTA  *****

CITY           SKY/WX    TMP DP  RH WIND       PRES   REMARKS
FLAG ISLAND    CLOUDY    27  21  80 SW8       29.81F WCI  18
WARROAD        CLOUDY    27  23  86 SW5       29.83F WCI  21
ROSEAU         PTSUNNY   27  21  80 SW7       29.83F WCI  19
HALLOCK        CLOUDY    28  25  86 W3        29.84F
THF RVR FALLS  CLOUDY    26  21  81 W5        29.85F WCI  20
BAUDETTE       CLOUDY    26  21  81 CALM      29.82F
WASKISH        CLOUDY    27  21  80 W6        29.83F WCI  20
CROOKSTON      CLOUDY    27  21  80 CALM      29.87S
STEPHEN NDAWN    N/A     28  21  74 W2          N/A
GREENBUSH NDAW   N/A     27  25  93 SW5         N/A  WCI  21
$$
  *****  WEATHER ACROSS CENTRAL AND WEST MINNESOTA  *****

CITY           SKY/WX    TMP DP  RH WIND       PRES   REMARKS
FOSSTON        CLOUDY    25  19  80 W5        29.84S WCI  19
BEMIDJI        CLOUDY    27  23  84 NW7       29.82S WCI  19
PARK RAPIDS    CLOUDY    30  23  75 CALM      29.80F
ELBOW LAKE     CLOUDY    31  26  83 NE3       29.82F HAZE
WADENA         CLOUDY    28  25  86 CALM      29.82R
DETROIT LAKES  CLOUDY    28  27  93 NW5       29.83S WCI  23
MOORHEAD       CLOUDY    27  21  80 VRB6      29.86F WCI  20
FERGUS FALLS   CLOUDY    30  25  80 CALM      29.87S
MORRIS MN      PTSUNNY   34  28  80 N7        29.79F
STAPLES        CLOUDY    30  25  80 CALM      29.82R
$$
  *****  WEATHER ELSEWHERE ACROSS MINNESOTA  *****

CITY           SKY/WX    TMP DP  RH WIND       PRES   REMARKS
DULUTH         CLOUDY    31  25  78 N7        29.79F WCI  24
INTRNTL FALLS  CLOUDY    28  22  78 VRB5      29.82F WCI  23
ELY            CLOUDY    28  27  93 CALM      29.80S
CLOQUET        CLOUDY    30  25  80 NW3       29.81R
WHEATON        FAIR      30  27  86 N8        29.83F WCI  23
BRAINERD       CLOUDY    30  24  78 NW8       29.81F WCI  22
HIBBING        CLOUDY    27  25  92 NW5       29.80F WCI  22
ALEXANDRIA     CLOUDY    31  25  78 CALM      29.82S
SAINT CLOUD    CLOUDY    32  26  78 NE5       29.82F
MINNEAPOLIS    CLOUDY    32  26  78 E7        29.82F
$$

  *****  WEATHER ACROSS SOUTH DAKOTA  *****

CITY           SKY/WX    TMP DP  RH WIND       PRES   REMARKS
SIOUX FALLS    CLOUDY    31  29  92 E15       29.71F WCI  20
BROOKINGS      CLOUDY    28  27  93 E10       29.73F WCI  19
WATERTOWN      CLOUDY    29  25  85 NE13      29.74F WCI  19
HURON          FLURRIES  31  28  89 E9        29.76F WCI  23
SISSETON         N/A     31  28  89 NE10      29.80F WCI  22
ABERDEEN       LGT SNOW  29  24  82 N9        29.82S WCI  20
MITCHELL       CLOUDY    32  30  92 E13       29.73F WCI  22
PIERRE         SNOW      27  25  92 NE16      29.76F VSB 1/2 WCI  15
MOBRIDGE       LGT SNOW  24  18  77 N16       29.80F WCI  11
RAPID CITY     SNOW      21  18  88 N17       29.77F VSB 1/2 WCI   7
$$

  *****  SOME WEATHER IN NEARBY STATES *****

CITY           SKY/WX    TMP DP  RH WIND       PRES   REMARKS
GLASGOW MT     FLURRIES  19  14  81 NW13      29.91F WCI   6
GREAT FALLS MT FAIR      24  16  71 SW8       29.88F WCI  15
CHEYENNE WY    PTSUNNY   17  12  80 N16G23    29.58F WCI   2
SCOTTSBLUFF NE LGT SNOW  23  16  74 N18       29.68F WCI   9
OMAHA NE       CLOUDY    36  28  73 E13G24    29.54F
DES MOINES IA  CLOUDY    33  29  85 E15G23    29.65F WCI  23
DAVENPORT IA   CLOUDY    36  31  82 E7        29.81F
CHICAGO IL     CLOUDY    35  31  85 CALM      29.83F
EAU CLAIRE WI  CLOUDY    34  28  79 CALM      29.81F
LA CROSSE WI   CLOUDY    38  30  73 E3        29.81F
$$

  *****  SOME NATIONAL WEATHER *****

CITY           SKY/WX    TMP DP  RH WIND       PRES   REMARKS
LA GUARDIA NY  LGT RAIN  39  34  82 NW20      29.31S
RALEIGH NC     FAIR      61  37  41 NW9G24    29.63R
ATLANTA GA     FAIR      60  34  37 NW8       29.81F
NEW ORLEANS LA FAIR      68  46  45 S12       29.91F
OKLAHOMA CITY  PTSUNNY   74  34  23 SW21G26   29.49F
ALBUQUERQUE NM FAIR      40  16  37 W30G38    29.75F
SALT LAKE CITY FLURRIES  30  24  78 CALM      29.83S
LOS ANGELES CA FAIR      54  40  59 W6        30.03F
BOISE ID       FAIR      31  22  69 W14       29.87F WCI  21
SEATTLE WA     CLOUDY    39  35  86 SE3       30.14S
$$

*** WEATHER ACROSS MANITOBA...SASKATCHEWAN AND ONTARIO ***
                ***ONTARIO***

CITY           SKY/WX    TMP DP  RH WIND       PRES   REMARKS
GERALDTON      CLOUDY    34  34 100 N3        29.77F FOG
THUNDER BAY    PTSUNNY   37  30  75 NW10      29.80F
SIOUX LOOKOUT  CLOUDY    27  23  86 W6        29.80S WCI  20
TORONTO        CLOUDY    34  28  80 N9        29.65S
BIG TROUT LK   CLOUDY    28  27  93 VRB2      29.79S
PICKLE LAKE    LGT SNOW  32  32 100 W3        29.77S FOG
DRYDEN         CLOUDY    25  23  93 SW6       29.80S WCI  18
KENORA         FLURRIES  25  23  93 SW9       29.80F WCI  15
$$
                *** MANITOBA***

CITY           SKY/WX    TMP DP  RH WIND       PRES   REMARKS
BRANDON        CLOUDY    23  19  86 NW12      29.84F WCI  12
DAUPHIN        FLURRIES  23  16  74 NW7       29.88S WCI  15
ISLAND LAKE    LGT SNOW  30  28  93 NW5       29.79R
PILOT MOUND      N/A     23  19  86 NW12        N/A  WCI  12
THE PAS        CLOUDY    14   9  79 NW13      29.92S WCI   0
THOMPSON       FLURRIES  18  12  79 NW5       29.87S WCI  11
WINNIPEG       FLURRIES  25  23  93 W15       29.83F WCI  12
LYNN LAKE      FLURRIES  10   7  85 NW6       29.88S WCI   1
CHURCHILL      FLURRIES  12  10  92 N6        29.93S WCI   3
GILLAM         LGT SNOW  18  12  79 N5        29.88S WCI  11
$$
                ***SASKATCHEWAN***

CITY           SKY/WX    TMP DP  RH WIND       PRES   REMARKS
ESTEVAN        FLURRIES  18  14  86 NW15      29.88F WCI   3
KINDERSLEY     FLURRIES  12   7  79 NW5       29.93F WCI   4
LLOYDMINSTER   FLURRIES   7   5  92 SW6       29.94S WCI  -3
PRINCE ALBERT  FLURRIES  10   5  79 NW6       29.97S WCI   1
REGINA         FLURRIES  18  12  79 NW12      29.90F WCI   5
YORKTON        CLOUDY    16  10  79 NW10      29.87S WCI   3
N. BATTLEFORD  FLURRIES   9   5  85 NW8       29.99F WCI  -4
LA RONGE       MOSUNNY   10   3  72 W8        29.96F WCI  -1
SASKATOON      CRYSTALS  10   3  72 N7        29.98F WCI   0
SWIFT CURRENT  FLURRIES  12  10  92 NW13      29.88S WCI  -3
$$
NOTE: THESE ARE AUTOMATED STATIONS WITH LIMITED QUALITY CONTROL
      "FAIR" INDICATES FEW OR NO CLOUDS BELOW 12,000 FEET WITH NO
      SIGNIFICANT WEATHER AND/OR OBSTRUCTIONS TO VISIBILITY.
      SKY/WX - SKY CONDITION AND SIGNIFICANT WEATHER.
      TMP - AIR TEMPERATURE.    DP   - DEWPOINT TEMPERATURE.
      RH  - RELATIVE HUMIDITY.  PRES - PRESSURE.
      HX  - HEAT INDEX.         WCI  - WIND CHILL INDEX.
$



USA.gov is the U.S. government's official web portal to all federal, state and local government web resources and services.